Location: �terpigny
(49.8910°N, 2.9249°E)
Time: 05:47:10
(UTC+00:00)

Cosmos 1908 - Pass Details

Date: 04 June 2022
Orbit: 505 x 523 km, 82.5° (Epoch: 03 July)

Event Time Altitude Azimuth Distance (km) Brightness Sun altitude
Rises 21:12:20 0° 8° (N) 2,623 7.6 -9.9°
Reaches altitude 10° 21:15:57 10° 44° (NE) 1,731 6.0 -10.3°
Maximum altitude 21:17:09 11° 62° (ENE) 1,654 5.7 -10.4°
Drops below altitude 10° 21:18:20 10° 81° (E) 1,728 5.6 -10.5°
Enters shadow 21:19:49 - 100° (E) 2,000 5.8 -10.6°
